Regional Weather Roundup
Issued by NWS

Home | Current Version | Previous Version | Graphics & Text | Print | Product List | Glossary Off
Versions: 1 2 3 4 5 6 7 8 9 10 11 12 13 14 15 16 17 18 19 20 21 22 23 24 25 26 27 28 29 30 31 32 33 34 35 36 37 38 39 40 41 42 43 44 45 46 47 48 49 50

921
ASUS43 KTOP 030059
RWRKS

WEATHER ROUNDUP FOR KANSAS
NATIONAL WEATHER SERVICE GOODLAND KS
700 PM CST FRI DEC 02 2016

NOTE:  "FAIR" INDICATES FEW OR NO CLOUDS BELOW 12,000 FEET WITH NO
SIGNIFICANT WEATHER AND/OR OBSTRUCTIONS TO VISIBILITY.

KSZ001>006-013>018-027>032-041>047-030200-
NORTHWEST KANSAS

CITY           SKY/WX    TMP DP  RH WIND       PRES   REMARKS
GOODLAND       CLOUDY    34  17  50 NE6       30.23R
HAYS           CLEAR     31  22  69 NE7       30.25F
HILL CITY      CLEAR     30  20  66 E8        30.26S
RUSSELL        CLEAR     32  23  69 NE12      30.24F WCI  23
$$

KSZ061>065-074>080-084>089-030200-
SOUTHWEST KANSAS

CITY           SKY/WX    TMP DP  RH WIND       PRES   REMARKS
DODGE CITY     CLOUDY    38  15  39 NE9       30.21R
ELKHART          N/A     40  12  32 NE5         N/A
GARDEN CITY    PTCLDY    38  14  37 NE8       30.21R
GREAT BEND     CLEAR     36  21  54 NE10      30.25  WCI  28
LIBERAL        CLOUDY    45  12  26 E6        30.21R
$$

KSZ066>073-081>083-090>101-030200-
SOUTHEAST KANSAS

CITY           SKY/WX    TMP DP  RH WIND       PRES   REMARKS
CHANUTE        CLEAR     46  26  45 NE10      30.25F
COFFEYVILLE    CLOUDY    47  27  45 NE12      30.22F
HUTCHINSON     CLEAR     40  22  48 NE8       30.24S
MEDICINE LODGE   N/A     39  23  52 N7        30.22R
NEWTON         CLEAR     40  21  46 NE8       30.25S
PARSONS        PTCLDY    45  26  47 NE6       30.24F
WICHITA INTL   PTCLDY    45  22  40 NE12      30.23S
WICHITA JABRA  CLEAR     40  23  50 NE8       30.23F
WINFIELD       PTCLDY    47  22  37 NE10      30.22S
$$

KSZ007>012-019>026-033>040-048>060-102>105-030200-
NORTHEAST KANSAS

CITY           SKY/WX    TMP DP  RH WIND       PRES   REMARKS
CONCORDIA      CLEAR     34  25  69 NE6       30.29S
EMPORIA        CLEAR     39  24  55 NE8       30.28R
LAWRENCE       CLEAR     30  25  81 CALM      30.31S HAZE
MANHATTAN      CLEAR     37  27  67 N3        30.30R
MARYSVILLE     CLEAR     32  27  80 N6        30.31R
OLATHE IND     CLEAR     38  26  62 NE7       30.31R
OLATHE EXE     CLEAR     41  26  55 N5        30.31R
SALINA         CLEAR     36  23  59 NE3       30.29R
TOPEKA BILLARD CLEAR     37  26  64 NE3       30.31R
TOPEKA FORBES  CLEAR     35  25  66 NE3       30.30S
$$




USA.gov is the U.S. government's official web portal to all federal, state and local government web resources and services.